Overview Statistics Trail Chart Weather Telemetry Raw packets
 

This is the latest recevied weather packets stored in our database for station/object SV9TNF-52. If no packets are shown the sender has not sent any weather packets the latest 10 day(s).

<< 103 104 105 106 107 108 109 >>
Time Temp. Humidity Pressure Rain* Wind** Luminosity Snow
1787900815 31.11° C 54% 1020.3 hPa 0 mm 0.89 m/s, 62° - -
1787900514 30.56° C 54% 1020.3 hPa 0 mm 1.34 m/s, 99° - -
1787900215 30.56° C 55% 1020.3 hPa 0 mm 1.34 m/s, 99° - -
1787899914 30.56° C 54% 1020.3 hPa 0 mm 1.34 m/s, 70° - -
1787899615 30.56° C 56% 1020.3 hPa 0 mm 1.79 m/s, 90° - -
1787899314 30.56° C 57% 1020.3 hPa 0 mm 2.68 m/s, 110° - -
1787899014 30.56° C 56% 1020.3 hPa 0 mm 1.34 m/s, 85° - -
1787898714 31.11° C 56% 1020.3 hPa 0 mm 1.34 m/s, 238° - -
1787898414 30.56° C 55% 1020.3 hPa 0 mm 1.79 m/s, 57° - -
1787898114 30.56° C 55% 1020.3 hPa 0 mm 3.58 m/s, 110° - -
1787897814 30.56° C 56% 1020.3 hPa 0 mm 1.79 m/s, 79° - -
1787897514 30° C 56% 1020.3 hPa 0 mm 0.89 m/s, 95° - -
1787897213 30.56° C 57% 1020.3 hPa 0 mm 0 m/s - -
1787896914 29.44° C 57% 1020.3 hPa 0 mm 0.45 m/s, 62° - -
1787896614 29.44° C 56% 1020.3 hPa 0 mm 1.34 m/s, 94° - -
1787896313 30° C 58% 1020.3 hPa 0 mm 0.45 m/s, 22° - -
1787896013 29.44° C 59% 1020.3 hPa 0 mm 0.45 m/s, 67° - -
1787895713 28.89° C 61% 1020.3 hPa 0 mm 3.13 m/s, 80° - -
1787895413 28.33° C 64% 1020.3 hPa 0 mm 0.89 m/s, 83° - -
1787895113 28.33° C 66% 1020.3 hPa 0 mm 0.89 m/s, 156° - -
1787894813 27.78° C 67% 1020.3 hPa 0 mm 0.89 m/s, 80° - -
1787894513 27.22° C 68% 1020.3 hPa 0 mm 4.92 m/s, 175° - -
1787894213 26.67° C 68% 1020.3 hPa 0 mm 4.47 m/s, 185° - -
1787893912 26.11° C 68% 1020 hPa 0 mm 5.81 m/s, 184° - -
1787893612 25.56° C 68% 1020 hPa 0 mm 6.26 m/s, 201° - -

* Rain latest hour (hover to see other rain measurements)
** Current wind speed in m/s (hover to see current wind gust speed)